Location: Newark
(48.0000°N, 67.0000°E)
Time: 19:13:43
(UTC+00:00)

Altair - All Passes

Search period start: 21 February 2020 00:00
Search period end: 02 March 2020 00:00
Orbit: 1502 x 1682 km, 47.2° (Epoch: 21 February)

Date Brightness Start Highest point End Pass type
(mag) Time Alt. Az. Time Alt. Az. Time Alt. Az.
21 Feb - 00:51:58 10° W 01:01:47 81° SSW 01:11:54 10° ESE visible
21 Feb - 02:56:46 10° WNW 03:06:03 47° SW 03:15:32 10° SSE daylight
21 Feb - 05:03:39 10° W 05:08:58 16° SW 05:14:21 10° SSW daylight
21 Feb - 18:20:14 10° SSE 18:24:51 15° SE 18:29:32 10° E night (unlit)
21 Feb - 20:18:45 10° SSW 20:27:34 46° SE 20:36:42 10° ENE visible
21 Feb - 22:22:08 10° WSW 22:31:43 81° SSE 22:41:42 10° E visible
22 Feb - 00:26:48 10° W 00:36:35 82° S 00:46:42 10° ESE visible
22 Feb - 02:31:34 10° WNW 02:40:56 50° SW 02:50:31 10° SE daylight
22 Feb - 04:38:02 10° W 04:43:58 18° SW 04:49:56 10° SSW daylight
22 Feb - 17:56:08 10° SSE 17:59:52 13° ESE 18:03:40 10° E night (unlit)
22 Feb - 19:53:49 10° SSW 20:02:29 44° SE 20:11:27 10° ENE visible
22 Feb - 21:57:00 10° WSW 22:06:32 79° SSE 22:16:28 10° E visible
23 Feb - 00:01:38 10° W 00:11:23 84° S 00:21:28 10° ESE visible
23 Feb - 02:06:22 10° WNW 02:15:48 53° SSW 02:25:28 10° SE daylight
23 Feb - 04:12:30 10° W 04:18:56 19° SW 04:25:26 10° SSW daylight
23 Feb - 17:32:25 10° SE 17:34:55 11° ESE 17:37:25 10° ESE night (unlit)
23 Feb - 19:28:54 10° SSW 19:37:24 41° SE 19:46:12 10° ENE visible
23 Feb - 21:31:53 10° WSW 21:41:21 77° SSE 21:51:14 10° E visible
23 Feb - 23:36:28 10° W 23:46:11 85° S 23:56:15 10° ESE visible
24 Feb - 01:41:11 10° WNW 01:50:40 55° SSW 02:00:23 10° SE visible
24 Feb - 03:47:03 10° W 03:53:54 21° SW 04:00:51 10° S daylight
24 Feb - 19:04:00 10° SSW 19:12:20 38° SE 19:20:57 10° ENE visible
24 Feb - 21:06:46 10° WSW 21:16:11 75° SSE 21:26:01 10° E visible
24 Feb - 23:11:18 10° W 23:20:59 86° S 23:31:02 10° E visible
25 Feb - 01:16:00 10° WNW 01:25:30 58° SSW 01:35:18 10° SE visible
25 Feb - 03:21:38 10° W 03:28:52 23° SW 03:36:12 10° S daylight
25 Feb - 18:39:09 10° SSW 18:47:17 36° SE 18:55:39 10° ENE visible
25 Feb - 20:41:39 10° WSW 20:51:02 73° SSE 21:00:48 10° ENE visible
25 Feb - 22:46:09 10° W 22:55:47 86° S 23:05:48 10° E visible
26 Feb - 00:50:50 10° WNW 01:00:22 61° SSW 01:10:12 10° SE visible
26 Feb - 02:56:16 10° W 03:03:48 25° SW 03:11:28 10° S daylight
26 Feb - 18:14:18 10° SSW 18:22:14 33° SE 18:30:22 10° ENE night (unlit)
26 Feb - 20:16:34 10° WSW 20:25:52 71° SSE 20:35:35 10° ENE visible
26 Feb - 22:20:59 10° W 22:30:34 87° S 22:40:34 10° E visible
27 Feb - 00:25:40 10° WNW 00:35:12 63° SSW 00:45:04 10° SE visible
27 Feb - 02:30:57 10° W 02:38:45 27° SW 02:46:43 10° S daylight
27 Feb - 17:49:30 10° SSW 17:57:11 30° SE 18:05:05 10° E night (unlit)
27 Feb - 19:51:28 10° WSW 20:00:43 68° SSE 20:10:21 10° ENE visible
27 Feb - 21:55:49 10° W 22:05:23 87° S 22:15:20 10° E visible
28 Feb - 00:00:30 10° WNW 00:10:03 66° SSW 00:19:56 10° SE visible
28 Feb - 02:05:39 10° W 02:13:41 30° SW 02:21:54 10° S daylight
28 Feb - 17:24:44 10° S 17:32:10 28° SE 17:39:46 10° E night (unlit)
28 Feb - 19:26:24 10° SW 19:35:35 65° SSE 19:45:08 10° ENE visible
28 Feb - 21:30:40 10° W 21:40:11 87° S 21:50:06 10° E visible
28 Feb - 23:35:20 10° WNW 23:44:53 68° SSW 23:54:47 10° ESE visible
29 Feb - 01:40:22 10° WNW 01:48:37 32° SW 01:57:03 10° SSE visible
29 Feb - 17:00:01 10° S 17:07:09 26° SE 17:14:25 10° E night (unlit)
29 Feb - 19:01:20 10° SW 19:10:28 63° SSE 19:19:55 10° ENE visible
29 Feb - 21:05:30 10° W 21:14:59 87° S 21:24:53 10° E visible
29 Feb - 23:10:10 10° WNW 23:19:43 71° SSW 23:29:37 10° ESE visible
01 Mar - 01:15:07 10° WNW 01:23:32 34° SW 01:32:10 10° SSE visible
01 Mar - 16:35:19 10° S 16:42:08 24° SE 16:49:03 10° E visible
01 Mar - 18:36:18 10° SW 18:45:21 60° SSE 18:54:43 10° ENE visible
01 Mar - 20:40:21 10° W 20:49:48 86° S 20:59:39 10° E visible
01 Mar - 22:45:01 10° WNW 22:54:33 73° SSW 23:04:27 10° ESE visible
